| time (UTC) | temp F | wind direction | speed MPH | gust MPH | rain 1hr in | rain 24hr in | rain mn in | humidity % | barometer mb |
| 20260510091224 | 39 | 24 | 0.0 | 0.0 | 0.00 | 0.00 | 0.00 | 61 | 1018.5 |
| 20260510090720 | 39 | 24 | 0.0 | 0.0 | 0.00 | 0.00 | 0.00 | 61 | 1018.1 |
| 20260510090217 | 39 | 24 | 0.0 | 0.0 | 0.00 | 0.00 | 0.00 | 57 | 1018.1 |
| 20260510085713 | 40 | 24 | 0.0 | 0.0 | 0.00 | 0.00 | 0.00 | 56 | 1018.1 |
| 20260510085208 | 40 | 24 | 0.0 | 0.0 | 0.00 | 0.00 | 0.00 | 57 | 1018.1 |
| 20260510084704 | 40 | 24 | 0.0 | 0.0 | 0.00 | 0.00 | 0.00 | 58 | 1018.1 |
| 20260510084201 | 41 | 24 | 0.0 | 0.0 | 0.00 | 0.00 | 0.00 | 57 | 1018.1 |
| 20260510083658 | 41 | 24 | 0.0 | 0.0 | 0.00 | 0.00 | 0.00 | 57 | 1017.3 |
| 20260510083154 | 41 | 24 | 0.0 | 0.0 | 0.00 | 0.00 | 0.00 | 57 | 1017.8 |
| 20260510082645 | 42 | 24 | 0.0 | 0.0 | 0.00 | 0.00 | 0.00 | 55 | 1017.3 |
| 20260510082141 | 42 | 24 | 0.0 | 0.0 | 0.00 | 0.00 | 0.00 | 52 | 1017.3 |
| 20260510081635 | 43 | 24 | 0.0 | 0.0 | 0.00 | 0.00 | 0.00 | 52 | 1017.0 |
| 20260510081132 | 43 | 17 | 0.0 | 0.0 | 0.00 | 0.00 | 0.00 | 52 | 1017.0 |
| 20260510080631 | 44 | 18 | 0.0 | 0.0 | 0.00 | 0.00 | 0.00 | 52 | 1017.0 |
| 20260510080128 | 44 | 342 | 0.0 | 0.0 | 0.00 | 0.00 | 0.00 | 53 | 1017.0 |
| 20260510075625 | 44 | 342 | 0.0 | 0.0 | 0.00 | 0.00 | 0.00 | 51 | 1017.0 |
| 20260510075122 | 44 | 341 | 0.0 | 1.0 | 0.00 | 0.00 | 0.00 | 48 | 1017.0 |
| 20260510074619 | 44 | 340 | 1.0 | 1.0 | 0.00 | 0.00 | 0.00 | 47 | 1017.0 |
| 20260510074115 | 45 | 330 | 1.0 | 1.0 | 0.00 | 0.00 | 0.00 | 46 | 1016.7 |
| 20260510073611 | 45 | 337 | 1.0 | 2.0 | 0.00 | 0.00 | 0.00 | 47 | 1016.7 |
| 20260510073108 | 45 | 328 | 1.0 | 1.0 | 0.00 | 0.00 | 0.00 | 47 | 1016.7 |
| 20260510072605 | 44 | 338 | 1.0 | 1.0 | 0.00 | 0.00 | 0.00 | 45 | 1016.7 |
| 20260510072101 | 44 | 332 | 1.0 | 2.0 | 0.00 | 0.00 | 0.00 | 44 | 1016.7 |
| 20260510071557 | 44 | 339 | 1.0 | 1.0 | 0.00 | 0.00 | 0.00 | 44 | 1016.7 |
| 20260510071055 | 44 | 346 | 1.0 | 1.0 | 0.00 | 0.00 | 0.00 | 44 | 1016.7 |
| 20260510070552 | 44 | 347 | 1.0 | 2.0 | 0.00 | 0.00 | 0.00 | 46 | 1016.7 |
| 20260510070049 | 44 | 346 | 1.0 | 1.0 | 0.00 | 0.00 | 0.00 | 46 | 1016.7 |
| 20260510065545 | 44 | 349 | 1.0 | 1.0 | 0.00 | 0.00 | 0.00 | 47 | 1016.7 |
| 20260510065041 | 44 | 350 | 0.0 | 1.0 | 0.00 | 0.00 | 0.00 | 44 | 1016.7 |
| 20260510064538 | 44 | 357 | 1.0 | 1.0 | 0.00 | 0.00 | 0.00 | 45 | 1016.7 |
| 20260510064034 | 44 | 352 | 1.0 | 1.0 | 0.00 | 0.00 | 0.00 | 45 | 1016.7 |
| 20260510063531 | 44 | 353 | 1.0 | 1.0 | 0.00 | 0.00 | 0.00 | 48 | 1016.3 |
| 20260510063029 | 45 | 352 | 1.0 | 1.0 | 0.00 | 0.00 | 0.00 | 48 | 1016.7 |
| 20260510062525 | 45 | 355 | 1.0 | 1.0 | 0.00 | 0.00 | 0.00 | 45 | 1016.3 |
| 20260510062019 | 45 | 355 | 0.0 | 1.0 | 0.00 | 0.00 | 0.00 | 45 | 1016.0 |
| 20260510061516 | 45 | 354 | 0.0 | 1.0 | 0.00 | 0.00 | 0.00 | 44 | 1016.3 |
| 20260510061013 | 45 | 350 | 0.0 | 1.0 | 0.00 | 0.00 | 0.00 | 44 | 1016.0 |
| 20260510060510 | 46 | 348 | 1.0 | 1.0 | 0.00 | 0.00 | 0.00 | 42 | 1016.3 |
| 20260510060006 | 46 | 346 | 1.0 | 1.0 | 0.00 | 0.00 | 0.00 | 42 | 1016.3 |
| 20260510055502 | 46 | 326 | 1.0 | 1.0 | 0.00 | 0.00 | 0.00 | 41 | 1016.3 |
| 20260510055000 | 46 | 339 | 1.0 | 1.0 | 0.00 | 0.00 | 0.00 | 43 | 1016.0 |
| 20260510054455 | 46 | 347 | 1.0 | 1.0 | 0.00 | 0.00 | 0.00 | 42 | 1016.0 |
| 20260510053950 | 46 | 41 | 0.0 | 1.0 | 0.00 | 0.00 | 0.00 | 42 | 1015.6 |
| 20260510053446 | 46 | 41 | 0.0 | 0.0 | 0.00 | 0.00 | 0.00 | 42 | 1015.6 |
| 20260510052942 | 46 | 41 | 1.0 | 1.0 | 0.00 | 0.00 | 0.00 | 39 | 1015.6 |
| 20260510052438 | 46 | 41 | 0.0 | 1.0 | 0.00 | 0.00 | 0.00 | 39 | 1015.6 |
| 20260510051934 | 46 | 348 | 2.0 | 2.0 | 0.00 | 0.00 | 0.00 | 40 | 1015.6 |
| 20260510051431 | 47 | 340 | 1.0 | 1.0 | 0.00 | 0.00 | 0.00 | 40 | 1015.3 |
| 20260510050927 | 47 | 339 | 1.0 | 2.0 | 0.00 | 0.00 | 0.00 | 39 | 1015.0 |
| 20260510050424 | 47 | 354 | 0.0 | 1.0 | 0.00 | 0.00 | 0.00 | 38 | 1015.0 |
| 20260510045922 | 48 | 354 | 0.0 | 0.0 | 0.00 | 0.00 | 0.00 | 39 | 1015.0 |
| 20260510045419 | 48 | 352 | 1.0 | 1.0 | 0.00 | 0.00 | 0.00 | 37 | 1015.0 |
| 20260510044915 | 47 | 2 | 1.0 | 1.0 | 0.00 | 0.00 | 0.00 | 35 | 1015.0 |
| 20260510044412 | 48 | 350 | 1.0 | 1.0 | 0.00 | 0.00 | 0.00 | 35 | 1015.0 |
| 20260510043909 | 48 | 354 | 1.0 | 1.0 | 0.00 | 0.00 | 0.00 | 34 | 1015.0 |
| 20260510043405 | 48 | 350 | 1.0 | 1.0 | 0.00 | 0.00 | 0.00 | 34 | 1015.0 |
| 20260510042903 | 48 | 352 | 1.0 | 1.0 | 0.00 | 0.00 | 0.00 | 34 | 1014.6 |
| 20260510042359 | 48 | 352 | 1.0 | 1.0 | 0.00 | 0.00 | 0.00 | 35 | 1015.0 |
| 20260510041855 | 48 | 352 | 1.0 | 1.0 | 0.00 | 0.00 | 0.00 | 35 | 1014.6 |
| 20260510041352 | 49 | 346 | 1.0 | 1.0 | 0.00 | 0.00 | 0.00 | 33 | 1014.6 |
| 20260510040849 | 49 | 24 | 1.0 | 1.0 | 0.00 | 0.00 | 0.00 | 32 | 1014.6 |
| 20260510040346 | 50 | 24 | 0.0 | 1.0 | 0.00 | 0.00 | 0.00 | 32 | 1014.3 |
| 20260510035842 | 50 | 24 | 0.0 | 0.0 | 0.00 | 0.00 | 0.00 | 32 | 1014.3 |
| 20260510035338 | 51 | 24 | 1.0 | 1.0 | 0.00 | 0.00 | 0.00 | 31 | 1014.3 |
| 20260510034833 | 51 | 24 | 0.0 | 0.0 | 0.00 | 0.00 | 0.00 | 30 | 1014.3 |
| 20260510034332 | 52 | 24 | 0.0 | 0.0 | 0.00 | 0.00 | 0.00 | 30 | 1014.3 |
| 20260510033828 | 52 | 24 | 1.0 | 1.0 | 0.00 | 0.00 | 0.00 | 29 | 1013.9 |
| 20260510033325 | 52 | 24 | 0.0 | 0.0 | 0.00 | 0.00 | 0.00 | 28 | 1013.9 |
| 20260510032821 | 53 | 24 | 0.0 | 0.0 | 0.00 | 0.00 | 0.00 | 25 | 1013.9 |
| 20260510032318 | 53 | 24 | 0.0 | 0.0 | 0.00 | 0.00 | 0.00 | 25 | 1013.9 |
| 20260510031813 | 53 | 17 | 0.0 | 1.0 | 0.00 | 0.00 | 0.00 | 25 | 1013.9 |
| 20260510031309 | 53 | 14 | 0.0 | 1.0 | 0.00 | 0.00 | 0.00 | 25 | 1013.9 |
| 20260510030803 | 53 | 19 | 0.0 | 0.0 | 0.00 | 0.00 | 0.00 | 25 | 1013.9 |
| 20260510030300 | 53 | 16 | 1.0 | 1.0 | 0.00 | 0.00 | 0.00 | 25 | 1013.6 |
| 20260510025758 | 53 | 32 | 0.0 | 1.0 | 0.00 | 0.00 | 0.00 | 25 | 1013.6 |
| 20260510025255 | 53 | 32 | 0.0 | 0.0 | 0.00 | 0.00 | 0.00 | 25 | 1013.6 |
| 20260510024751 | 53 | 359 | 0.0 | 1.0 | 0.00 | 0.00 | 0.00 | 25 | 1013.2 |
| 20260510024248 | 53 | 23 | 0.0 | 0.0 | 0.00 | 0.00 | 0.00 | 25 | 1013.2 |
| 20260510023744 | 54 | 23 | 0.0 | 1.0 | 0.00 | 0.00 | 0.00 | 25 | 1013.2 |
| 20260510023241 | 54 | 23 | 0.0 | 0.0 | 0.00 | 0.00 | 0.00 | 24 | 1012.8 |
| 20260510022737 | 54 | 35 | 0.0 | 0.0 | 0.00 | 0.00 | 0.00 | 24 | 1012.8 |
| 20260510022237 | 54 | 35 | 0.0 | 0.0 | 0.00 | 0.00 | 0.00 | 24 | 1012.5 |
| 20260510021732 | 55 | 28 | 0.0 | 0.0 | 0.00 | 0.00 | 0.00 | 24 | 1012.8 |
| 20260510021230 | 55 | 28 | 0.0 | 1.0 | 0.00 | 0.00 | 0.00 | 23 | 1012.5 |
| 20260510020730 | 55 | 9 | 0.0 | 0.0 | 0.00 | 0.00 | 0.00 | 24 | 1012.2 |
| 20260510020225 | 55 | 38 | 0.0 | 0.0 | 0.00 | 0.00 | 0.00 | 24 | 1012.2 |
| 20260510015722 | 56 | 320 | 1.0 | 1.0 | 0.00 | 0.00 | 0.00 | 23 | 1012.2 |
| 20260510015218 | 56 | 28 | 0.0 | 1.0 | 0.00 | 0.00 | 0.00 | 23 | 1011.8 |
| 20260510014713 | 56 | 356 | 0.0 | 0.0 | 0.00 | 0.00 | 0.00 | 22 | 1011.8 |
| 20260510014211 | 57 | 104 | 1.0 | 1.0 | 0.00 | 0.00 | 0.00 | 25 | 1011.8 |
| 20260510013706 | 57 | 64 | 0.0 | 0.0 | 0.00 | 0.00 | 0.00 | 24 | 1011.5 |
| 20260510013202 | 57 | 303 | 4.0 | 4.0 | 0.00 | 0.00 | 0.00 | 22 | 1011.1 |
| 20260510012701 | 58 | 33 | 0.0 | 1.0 | 0.00 | 0.00 | 0.00 | 24 | 1011.5 |
| 20260510012152 | 58 | 19 | 0.0 | 1.0 | 0.00 | 0.00 | 0.00 | 25 | 1011.1 |
| 20260510011647 | 58 | 288 | 3.0 | 4.0 | 0.00 | 0.00 | 0.00 | 24 | 1011.1 |
| 20260510011143 | 59 | 46 | 1.0 | 1.0 | 0.00 | 0.00 | 0.00 | 24 | 1010.8 |
| 20260510010638 | 59 | 356 | 0.0 | 0.0 | 0.00 | 0.00 | 0.00 | 24 | 1010.5 |
| 20260510010136 | 59 | 353 | 1.0 | 2.0 | 0.00 | 0.00 | 0.00 | 24 | 1010.8 |
| 20260510005631 | 59 | 9 | 1.0 | 1.0 | 0.00 | 0.00 | 0.00 | 24 | 1010.5 |
| 20260510005129 | 60 | 312 | 1.0 | 1.0 | 0.00 | 0.00 | 0.00 | 23 | 1010.5 |
| 20260510004627 | 60 | 349 | 1.0 | 1.0 | 0.00 | 0.00 | 0.00 | 23 | 1010.1 |
| 20260510004125 | 60 | 6 | 1.0 | 2.0 | 0.00 | 0.00 | 0.00 | 22 | 1010.1 |
| 20260510003622 | 60 | 303 | 2.0 | 2.0 | 0.00 | 0.00 | 0.00 | 23 | 1010.1 |
| 20260510003117 | 60 | 92 | 0.0 | 1.0 | 0.00 | 0.00 | 0.00 | 23 | 1010.1 |
| 20260510002612 | 61 | 36 | 1.0 | 1.0 | 0.00 | 0.00 | 0.00 | 22 | 1009.8 |
| 20260510002109 | 61 | 312 | 1.0 | 2.0 | 0.00 | 0.00 | 0.00 | 21 | 1009.8 |
| 20260510001606 | 61 | 239 | 2.0 | 3.0 | 0.00 | 0.00 | 0.00 | 21 | 1010.1 |
| 20260510001106 | 61 | 36 | 4.0 | 8.0 | 0.00 | 0.00 | 0.00 | 20 | 1009.8 |
| 20260510000605 | 61 | 38 | 1.0 | 1.0 | 0.00 | 0.00 | 0.00 | 21 | 1009.8 |
| 20260509235559 | 61 | 279 | 4.0 | 4.0 | 0.00 | 0.00 | 0.00 | 20 | 1009.0 |
| 20260509235056 | 62 | 24 | 3.0 | 3.0 | 0.00 | 0.00 | 0.00 | 21 | 1009.4 |
| 20260509234552 | 62 | 353 | 2.0 | 2.0 | 0.00 | 0.00 | 0.00 | 21 | 1009.4 |
| 20260509234049 | 62 | 280 | 4.0 | 6.0 | 0.00 | 0.00 | 0.00 | 21 | 1009.4 |
| 20260509233547 | 62 | 261 | 2.0 | 3.0 | 0.00 | 0.00 | 0.00 | 22 | 1009.0 |
| 20260509233044 | 62 | 92 | 2.0 | 2.0 | 0.00 | 0.00 | 0.00 | 23 | 1009.0 |
| 20260509232540 | 62 | 86 | 1.0 | 1.0 | 0.00 | 0.00 | 0.00 | 21 | 1009.0 |
| 20260509232038 | 62 | 274 | 5.0 | 6.0 | 0.00 | 0.00 | 0.00 | 21 | 1008.7 |
| 20260509231534 | 63 | 281 | 1.0 | 2.0 | 0.00 | 0.00 | 0.00 | 21 | 1008.7 |
| 20260509231032 | 63 | 56 | 6.0 | 9.0 | 0.00 | 0.00 | 0.00 | 21 | 1008.7 |
| 20260509230528 | 63 | 264 | 3.0 | 3.0 | 0.00 | 0.00 | 0.00 | 21 | 1008.7 |
| 20260509230025 | 63 | 1 | 4.0 | 4.0 | 0.00 | 0.00 | 0.00 | 22 | 1008.7 |
| 20260509225521 | 63 | 101 | 0.0 | 1.0 | 0.00 | 0.00 | 0.00 | 23 | 1008.3 |
| 20260509225016 | 63 | 290 | 4.0 | 6.0 | 0.00 | 0.00 | 0.00 | 20 | 1008.3 |
| 20260509224512 | 63 | 335 | 3.0 | 4.0 | 0.00 | 0.00 | 0.00 | 20 | 1008.3 |
| 20260509224009 | 63 | 20 | 1.0 | 2.0 | 0.00 | 0.00 | 0.00 | 23 | 1008.0 |
| 20260509223506 | 63 | 206 | 2.0 | 3.0 | 0.00 | 0.00 | 0.00 | 21 | 1008.0 |
| 20260509223004 | 63 | 264 | 1.0 | 2.0 | 0.00 | 0.00 | 0.00 | 21 | 1008.3 |
| 20260509222459 | 64 | 280 | 5.0 | 9.0 | 0.00 | 0.00 | 0.00 | 19 | 1008.3 |
| 20260509221955 | 64 | 53 | 4.0 | 6.0 | 0.00 | 0.00 | 0.00 | 19 | 1007.7 |
| 20260509221451 | 64 | 158 | 4.0 | 4.0 | 0.00 | 0.00 | 0.00 | 20 | 1008.0 |
| 20260509220948 | 64 | 310 | 5.0 | 6.0 | 0.00 | 0.00 | 0.00 | 19 | 1007.7 |
| 20260509220444 | 64 | 338 | 3.0 | 4.0 | 0.00 | 0.00 | 0.00 | 19 | 1007.7 |
| 20260509215940 | 64 | 40 | 6.0 | 9.0 | 0.00 | 0.00 | 0.00 | 17 | 1007.7 |
| 20260509215435 | 64 | 324 | 3.0 | 4.0 | 0.00 | 0.00 | 0.00 | 18 | 1007.7 |
| 20260509214933 | 65 | 282 | 5.0 | 7.0 | 0.00 | 0.00 | 0.00 | 18 | 1007.3 |
| 20260509214430 | 65 | 309 | 5.0 | 6.0 | 0.00 | 0.00 | 0.00 | 19 | 1007.3 |
| 20260509213927 | 66 | 73 | 2.0 | 3.0 | 0.00 | 0.00 | 0.00 | 21 | 1007.3 |
| 20260509213422 | 66 | 116 | 2.0 | 2.0 | 0.00 | 0.00 | 0.00 | 20 | 1007.3 |
| 20260509212920 | 66 | 72 | 3.0 | 4.0 | 0.00 | 0.00 | 0.00 | 22 | 1007.3 |
| 20260509212418 | 66 | 344 | 6.0 | 8.0 | 0.00 | 0.00 | 0.00 | 20 | 1007.3 |
| 20260509211914 | 66 | 250 | 2.0 | 2.0 | 0.00 | 0.00 | 0.00 | 23 | 1007.0 |
| 20260509211409 | 65 | 267 | 2.0 | 4.0 | 0.00 | 0.00 | 0.00 | 23 | 1007.3 |
| 20260509210906 | 65 | 256 | 2.0 | 2.0 | 0.00 | 0.00 | 0.00 | 23 | 1007.3 |
| 20260509210403 | 65 | 244 | 4.0 | 4.0 | 0.00 | 0.00 | 0.00 | 24 | 1007.0 |
| 20260509205858 | 65 | 285 | 4.0 | 4.0 | 0.00 | 0.00 | 0.00 | 22 | 1007.0 |
| 20260509205352 | 65 | 288 | 7.0 | 10.0 | 0.00 | 0.00 | 0.00 | 22 | 1007.0 |
| 20260509204849 | 65 | 311 | 6.0 | 7.0 | 0.00 | 0.00 | 0.00 | 24 | 1007.0 |
| 20260509204345 | 65 | 359 | 2.0 | 3.0 | 0.00 | 0.00 | 0.00 | 28 | 1007.0 |
| 20260509203841 | 65 | 16 | 5.0 | 7.0 | 0.00 | 0.00 | 0.00 | 24 | 1006.6 |
| 20260509203333 | 65 | 256 | 2.0 | 3.0 | 0.00 | 0.00 | 0.00 | 25 | 1006.6 |
| 20260509202829 | 64 | 282 | 6.0 | 9.0 | 0.00 | 0.00 | 0.00 | 24 | 1006.6 |
| 20260509202326 | 64 | 286 | 5.0 | 6.0 | 0.00 | 0.00 | 0.00 | 24 | 1006.6 |
| 20260509201825 | 65 | 307 | 10.0 | 14.0 | 0.00 | 0.00 | 0.00 | 24 | 1006.6 |
| 20260509201322 | 65 | 256 | 6.0 | 8.0 | 0.00 | 0.00 | 0.00 | 24 | 1006.6 |
| 20260509200818 | 65 | 320 | 7.0 | 10.0 | 0.00 | 0.00 | 0.00 | 24 | 1006.6 |
| 20260509200314 | 64 | 299 | 7.0 | 9.0 | 0.00 | 0.00 | 0.00 | 24 | 1006.3 |
| 20260509195811 | 64 | 10 | 4.0 | 6.0 | 0.00 | 0.00 | 0.00 | 25 | 1006.6 |
| 20260509195306 | 64 | 307 | 3.0 | 6.0 | 0.00 | 0.00 | 0.00 | 24 | 1006.6 |
| 20260509194805 | 64 | 339 | 4.0 | 7.0 | 0.00 | 0.00 | 0.00 | 26 | 1006.6 |
| 20260509194301 | 64 | 3 | 4.0 | 6.0 | 0.00 | 0.00 | 0.00 | 26 | 1006.6 |
| 20260509193759 | 64 | 253 | 4.0 | 7.0 | 0.00 | 0.00 | 0.00 | 27 | 1006.6 |
| 20260509193258 | 64 | 270 | 6.0 | 8.0 | 0.00 | 0.00 | 0.00 | 27 | 1006.3 |
| 20260509192755 | 64 | 1 | 9.0 | 11.0 | 0.00 | 0.00 | 0.00 | 27 | 1006.6 |
| 20260509192250 | 64 | 275 | 5.0 | 7.0 | 0.00 | 0.00 | 0.00 | 28 | 1006.3 |
| 20260509191745 | 64 | 347 | 4.0 | 6.0 | 0.00 | 0.00 | 0.00 | 27 | 1006.3 |
| 20260509191242 | 64 | 198 | 3.0 | 3.0 | 0.00 | 0.00 | 0.00 | 28 | 1006.3 |
| 20260509190738 | 64 | 291 | 1.0 | 2.0 | 0.00 | 0.00 | 0.00 | 30 | 1006.6 |
| 20260509190235 | 64 | 311 | 3.0 | 4.0 | 0.00 | 0.00 | 0.00 | 30 | 1006.3 |
| 20260509185733 | 63 | 294 | 2.0 | 2.0 | 0.00 | 0.00 | 0.00 | 31 | 1006.6 |
| 20260509185229 | 63 | 343 | 6.0 | 9.0 | 0.00 | 0.00 | 0.00 | 32 | 1006.6 |
| 20260509184727 | 63 | 346 | 2.0 | 3.0 | 0.00 | 0.00 | 0.00 | 31 | 1006.3 |
| 20260509184224 | 63 | 277 | 5.0 | 8.0 | 0.00 | 0.00 | 0.00 | 31 | 1006.0 |
| 20260509183720 | 63 | 355 | 2.0 | 3.0 | 0.00 | 0.00 | 0.00 | 33 | 1006.3 |
| 20260509183215 | 63 | 304 | 6.0 | 7.0 | 0.00 | 0.00 | 0.00 | 31 | 1006.0 |
| 20260509182711 | 63 | 44 | 8.0 | 9.0 | 0.00 | 0.00 | 0.00 | 32 | 1006.6 |
| 20260509182209 | 62 | 25 | 1.0 | 1.0 | 0.00 | 0.00 | 0.00 | 37 | 1006.3 |
| 20260509181706 | 62 | 183 | 1.0 | 2.0 | 0.00 | 0.00 | 0.00 | 33 | 1006.0 |
| 20260509181203 | 62 | 17 | 0.0 | 1.0 | 0.00 | 0.00 | 0.00 | 34 | 1006.0 |
| 20260509180700 | 62 | 283 | 4.0 | 6.0 | 0.00 | 0.00 | 0.00 | 34 | 1006.0 |
| 20260509180156 | 62 | 326 | 2.0 | 3.0 | 0.00 | 0.00 | 0.00 | 37 | 1006.3 |
| 20260509175653 | 62 | 217 | 4.0 | 4.0 | 0.00 | 0.00 | 0.00 | 38 | 1006.3 |
| 20260509175149 | 62 | 288 | 5.0 | 7.0 | 0.00 | 0.00 | 0.00 | 38 | 1006.0 |
| 20260509174645 | 62 | 323 | 6.0 | 7.0 | 0.00 | 0.00 | 0.00 | 36 | 1006.3 |
| 20260509174139 | 62 | 280 | 4.0 | 6.0 | 0.00 | 0.00 | 0.00 | 37 | 1006.0 |
| 20260509173636 | 62 | 259 | 3.0 | 4.0 | 0.00 | 0.00 | 0.00 | 37 | 1006.0 |
| 20260509173132 | 61 | 300 | 4.0 | 6.0 | 0.00 | 0.00 | 0.00 | 35 | 1006.0 |
| 20260509172629 | 61 | 359 | 6.0 | 6.0 | 0.00 | 0.00 | 0.00 | 37 | 1006.3 |
| 20260509172125 | 61 | 299 | 9.0 | 11.0 | 0.00 | 0.00 | 0.00 | 37 | 1006.0 |
| 20260509171621 | 61 | 332 | 5.0 | 6.0 | 0.00 | 0.00 | 0.00 | 39 | 1006.0 |
| 20260509171117 | 61 | 285 | 6.0 | 9.0 | 0.00 | 0.00 | 0.00 | 40 | 1006.0 |
| 20260509170614 | 61 | 190 | 1.0 | 2.0 | 0.00 | 0.00 | 0.00 | 40 | 1006.0 |
| 20260509170109 | 61 | 48 | 1.0 | 2.0 | 0.00 | 0.00 | 0.00 | 41 | 1006.0 |
| 20260509165608 | 61 | 276 | 6.0 | 8.0 | 0.00 | 0.00 | 0.00 | 39 | 1006.0 |
| 20260509165104 | 61 | 35 | 4.0 | 6.0 | 0.00 | 0.00 | 0.00 | 41 | 1006.3 |
| 20260509164600 | 61 | 11 | 4.0 | 6.0 | 0.00 | 0.00 | 0.00 | 41 | 1006.0 |
| 20260509164056 | 60 | 327 | 2.0 | 3.0 | 0.00 | 0.00 | 0.00 | 43 | 1006.0 |
| 20260509163554 | 60 | 54 | 3.0 | 7.0 | 0.00 | 0.00 | 0.00 | 42 | 1006.0 |
| 20260509163054 | 60 | 276 | 2.0 | 4.0 | 0.00 | 0.00 | 0.00 | 46 | 1006.0 |
| 20260509162552 | 60 | 266 | 8.0 | 9.0 | 0.00 | 0.00 | 0.00 | 43 | 1005.3 |
| 20260509162048 | 60 | 351 | 6.0 | 8.0 | 0.00 | 0.00 | 0.00 | 44 | 1006.0 |
| 20260509161544 | 60 | 330 | 5.0 | 7.0 | 0.00 | 0.00 | 0.00 | 44 | 1005.6 |
| 20260509161039 | 60 | 287 | 6.0 | 11.0 | 0.00 | 0.00 | 0.00 | 46 | 1005.6 |
| 20260509160536 | 60 | 290 | 2.0 | 3.0 | 0.00 | 0.00 | 0.00 | 48 | 1005.6 |
| 20260509160031 | 60 | 320 | 6.0 | 9.0 | 0.00 | 0.00 | 0.00 | 45 | 1005.6 |
| 20260509155527 | 60 | 6 | 2.0 | 3.0 | 0.00 | 0.00 | 0.00 | 46 | 1005.3 |
| 20260509155023 | 60 | 356 | 6.0 | 7.0 | 0.00 | 0.00 | 0.00 | 47 | 1005.3 |
| 20260509154520 | 60 | 277 | 6.0 | 8.0 | 0.00 | 0.00 | 0.00 | 44 | 1005.3 |
| 20260509154018 | 59 | 27 | 1.0 | 2.0 | 0.00 | 0.00 | 0.00 | 47 | 1005.3 |
| 20260509153514 | 59 | 277 | 5.0 | 7.0 | 0.00 | 0.00 | 0.00 | 48 | 1004.8 |
| 20260509153011 | 59 | 254 | 6.0 | 9.0 | 0.00 | 0.00 | 0.00 | 48 | 1004.8 |
| 20260509152507 | 59 | 269 | 3.0 | 4.0 | 0.00 | 0.00 | 0.00 | 49 | 1004.8 |
| 20260509152004 | 59 | 88 | 1.0 | 2.0 | 0.00 | 0.00 | 0.00 | 50 | 1004.8 |
| 20260509151500 | 59 | 319 | 5.0 | 7.0 | 0.00 | 0.00 | 0.00 | 50 | 1005.3 |
| 20260509150959 | 59 | 34 | 5.0 | 7.0 | 0.00 | 0.00 | 0.00 | 50 | 1004.8 |
| 20260509150455 | 59 | 279 | 4.0 | 6.0 | 0.00 | 0.00 | 0.00 | 50 | 1004.8 |
| 20260509145954 | 59 | 317 | 3.0 | 3.0 | 0.00 | 0.00 | 0.00 | 50 | 1004.5 |
| 20260509145449 | 58 | 96 | 3.0 | 3.0 | 0.00 | 0.00 | 0.00 | 50 | 1004.5 |
| 20260509144944 | 58 | 331 | 3.0 | 4.0 | 0.00 | 0.00 | 0.00 | 49 | 1004.5 |
| 20260509144442 | 58 | 34 | 3.0 | 3.0 | 0.00 | 0.00 | 0.00 | 47 | 1004.5 |
| 20260509143938 | 57 | 284 | 2.0 | 2.0 | 0.00 | 0.00 | 0.00 | 45 | 1004.2 |
| 20260509143436 | 56 | 265 | 1.0 | 2.0 | 0.00 | 0.00 | 0.00 | 45 | 1004.5 |
| 20260509142932 | 56 | 225 | 3.0 | 4.0 | 0.00 | 0.00 | 0.00 | 44 | 1004.2 |
| 20260509142428 | 55 | 239 | 2.0 | 2.0 | 0.00 | 0.00 | 0.00 | 45 | 1004.5 |
| 20260509141924 | 54 | 312 | 1.0 | 2.0 | 0.00 | 0.00 | 0.00 | 45 | 1004.5 |
| 20260509141421 | 53 | 330 | 1.0 | 1.0 | 0.00 | 0.00 | 0.00 | 45 | 1004.5 |
| 20260509140918 | 53 | 266 | 3.0 | 6.0 | 0.00 | 0.00 | 0.00 | 47 | 1004.8 |
| 20260509140414 | 52 | 261 | 2.0 | 3.0 | 0.00 | 0.00 | 0.00 | 46 | 1004.8 |
| 20260509135913 | 52 | 251 | 2.0 | 2.0 | 0.00 | 0.00 | 0.00 | 47 | 1004.8 |
| 20260509135410 | 51 | 27 | 2.0 | 3.0 | 0.00 | 0.00 | 0.00 | 48 | 1004.8 |
| 20260509134907 | 51 | 302 | 1.0 | 2.0 | 0.00 | 0.00 | 0.00 | 49 | 1004.8 |
| 20260509134405 | 50 | 280 | 2.0 | 2.0 | 0.00 | 0.00 | 0.00 | 50 | 1004.8 |
| 20260509133901 | 50 | 294 | 1.0 | 2.0 | 0.00 | 0.00 | 0.00 | 50 | 1004.5 |
| 20260509133358 | 50 | 320 | 0.0 | 1.0 | 0.00 | 0.00 | 0.00 | 55 | 1004.5 |
| 20260509132857 | 50 | 272 | 1.0 | 1.0 | 0.00 | 0.00 | 0.00 | 55 | 1004.5 |
| 20260509132354 | 50 | 264 | 1.0 | 1.0 | 0.00 | 0.00 | 0.00 | 54 | 1004.8 |
| 20260509131851 | 49 | 284 | 1.0 | 1.0 | 0.00 | 0.00 | 0.00 | 53 | 1005.3 |
| 20260509131348 | 49 | 261 | 3.0 | 3.0 | 0.00 | 0.00 | 0.00 | 54 | 1004.8 |
| 20260509130844 | 49 | 282 | 2.0 | 2.0 | 0.00 | 0.00 | 0.00 | 54 | 1004.8 |
| 20260509130339 | 49 | 79 | 1.0 | 1.0 | 0.00 | 0.00 | 0.00 | 51 | 1004.5 |
| 20260509125837 | 48 | 79 | 0.0 | 1.0 | 0.00 | 0.00 | 0.00 | 51 | 1004.5 |
| 20260509125333 | 49 | 79 | 2.0 | 2.0 | 0.00 | 0.00 | 0.00 | 56 | 1004.2 |
| 20260509124830 | 49 | 96 | 0.0 | 0.0 | 0.00 | 0.00 | 0.00 | 55 | 1004.5 |
| 20260509124327 | 49 | 116 | 0.0 | 1.0 | 0.00 | 0.00 | 0.00 | 61 | 1004.2 |
| 20260509123825 | 49 | 34 | 0.0 | 0.0 | 0.00 | 0.00 | 0.00 | 56 | 1004.8 |
| 20260509123322 | 48 | 34 | 0.0 | 1.0 | 0.00 | 0.00 | 0.00 | 57 | 1004.8 |
| 20260509122817 | 48 | 335 | 0.0 | 0.0 | 0.00 | 0.00 | 0.00 | 55 | 1004.8 |
| 20260509122315 | 48 | 225 | 0.0 | 1.0 | 0.00 | 0.00 | 0.00 | 55 | 1004.8 |
| 20260509121811 | 48 | 35 | 0.0 | 0.0 | 0.00 | 0.00 | 0.00 | 51 | 1004.5 |
| 20260509121309 | 47 | 35 | 0.0 | 1.0 | 0.00 | 0.00 | 0.00 | 51 | 1004.8 |
| 20260509120807 | 46 | 35 | 0.0 | 0.0 | 0.00 | 0.00 | 0.00 | 52 | 1004.8 |
| 20260509120304 | 46 | 34 | 0.0 | 1.0 | 0.00 | 0.00 | 0.00 | 54 | 1004.8 |
| 20260509115802 | 45 | 347 | 1.0 | 1.0 | 0.00 | 0.00 | 0.00 | 54 | 1004.8 |
| 20260509115259 | 45 | 311 | 1.0 | 1.0 | 0.00 | 0.00 | 0.00 | 56 | 1004.8 |
| 20260509114757 | 44 | 87 | 1.0 | 1.0 | 0.00 | 0.00 | 0.00 | 56 | 1004.2 |
| 20260509114255 | 44 | 356 | 2.0 | 3.0 | 0.00 | 0.00 | 0.00 | 56 | 1004.8 |
| 20260509113754 | 44 | 38 | 0.0 | 0.0 | 0.00 | 0.00 | 0.00 | 63 | 1003.5 |
| 20260509113251 | 44 | 38 | 0.0 | 0.0 | 0.00 | 0.00 | 0.00 | 63 | 1003.5 |
| 20260509112747 | 44 | 38 | 0.0 | 0.0 | 0.00 | 0.00 | 0.00 | 61 | 1003.5 |
| 20260509112245 | 45 | 38 | 1.0 | 1.0 | 0.00 | 0.00 | 0.00 | 62 | 1003.2 |
| 20260509111742 | 45 | 38 | 0.0 | 0.0 | 0.00 | 0.00 | 0.00 | 61 | 1003.2 |
| 20260509111239 | 45 | 38 | 1.0 | 1.0 | 0.00 | 0.00 | 0.00 | 60 | 1003.2 |
| 20260509110736 | 45 | 38 | 1.0 | 1.0 | 0.00 | 0.00 | 0.00 | 60 | 1003.2 |
| 20260509110232 | 45 | 38 | 0.0 | 0.0 | 0.00 | 0.00 | 0.00 | 56 | 1002.8 |
| 20260509105731 | 44 | 38 | 0.0 | 0.0 | 0.00 | 0.00 | 0.00 | 55 | 1002.8 |
| 20260509105228 | 44 | 38 | 0.0 | 0.0 | 0.00 | 0.00 | 0.00 | 55 | 1002.8 |
| 20260509104725 | 44 | 38 | 0.0 | 0.0 | 0.00 | 0.00 | 0.00 | 54 | 1003.2 |
| 20260509104222 | 44 | 38 | 0.0 | 0.0 | 0.00 | 0.00 | 0.00 | 55 | 1003.2 |
| 20260509103720 | 44 | 38 | 0.0 | 0.0 | 0.00 | 0.00 | 0.00 | 57 | 1003.2 |
| 20260509103216 | 45 | 38 | 0.0 | 0.0 | 0.00 | 0.00 | 0.00 | 57 | 1002.8 |
| 20260509102715 | 45 | 38 | 0.0 | 0.0 | 0.00 | 0.00 | 0.00 | 57 | 1002.8 |
| 20260509102211 | 46 | 38 | 1.0 | 1.0 | 0.00 | 0.00 | 0.00 | 58 | 1002.8 |
| 20260509101708 | 46 | 38 | 0.0 | 0.0 | 0.00 | 0.00 | 0.00 | 54 | 1003.2 |
| 20260509101204 | 47 | 38 | 0.0 | 0.0 | 0.00 | 0.00 | 0.00 | 57 | 1002.8 |
| 20260509100702 | 47 | 38 | 0.0 | 0.0 | 0.00 | 0.00 | 0.00 | 53 | 1002.8 |
| 20260509100158 | 47 | 38 | 0.0 | 1.0 | 0.00 | 0.00 | 0.00 | 53 | 1002.5 |
| 20260509095656 | 47 | 332 | 0.0 | 1.0 | 0.00 | 0.00 | 0.00 | 50 | 1002.8 |
| 20260509095153 | 47 | 3 | 0.0 | 1.0 | 0.00 | 0.00 | 0.00 | 50 | 1002.5 |
| 20260509094649 | 48 | 340 | 1.0 | 1.0 | 0.00 | 0.00 | 0.00 | 50 | 1003.2 |
| 20260509094146 | 48 | 338 | 2.0 | 2.0 | 0.00 | 0.00 | 0.00 | 52 | 1002.8 |
| 20260509093644 | 49 | 32 | 2.0 | 2.0 | 0.00 | 0.00 | 0.00 | 53 | 1002.8 |
| 20260509093141 | 50 | 33 | 0.0 | 0.0 | 0.00 | 0.00 | 0.00 | 52 | 1002.5 |
| 20260509092640 | 50 | 33 | 0.0 | 0.0 | 0.00 | 0.00 | 0.00 | 47 | 1002.5 |
| 20260509092138 | 50 | 33 | 0.0 | 0.0 | 0.00 | 0.00 | 0.00 | 46 | 1002.8 |
| 20260509091635 | 51 | 33 | 1.0 | 1.0 | 0.00 | 0.00 | 0.00 | 46 | 1002.8 |